DW6513 Weather Reports


Display with metric or nautical units.
time (UTC)temp
F
wind
direction
speed
MPH
gust
MPH
rain 1hr
in
rain 24hr
in
rain mn
in
humidity
%
barometer
mb
20260505001811 78 145 6.0 10.0 0.00 0.03 0.03 46 1002.9
20260505001304 78 145 6.0 7.0 0.00 0.03 0.03 46 1002.9
20260505000804 79 145 7.0 6.0 0.00 0.03 0.03 46 1003.0
20260505000304 79 145 8.0 13.0 0.00 0.03 0.03 46 1003.0
20260504235804 79 145 7.0 12.0 0.00 0.03 0.03 46 1003.0
20260504235305 79 182 6.0 12.0 0.00 0.03 0.03 46 1003.0
20260504234803 80 145 7.0 8.0 0.00 0.03 0.03 46 1002.7
20260504234304 80 160 8.0 10.0 0.00 0.03 0.03 45 1002.7
20260504233805 80 145 8.0 13.0 0.00 0.03 0.03 45 1002.7
20260504233303 80 123 7.0 13.0 0.00 0.03 0.03 45 1002.7
20260504232803 80 145 8.0 12.0 0.00 0.03 0.03 45 1003.1
20260504232303 80 156 8.0 12.0 0.00 0.03 0.03 45 1003.1
20260504231303 80 145 5.0 9.0 0.00 0.03 0.03 48 1003.1
20260504230803 80 145 5.0 6.0 0.00 0.03 0.03 50 1003.9
20260504230302 80 145 5.0 9.0 0.00 0.03 0.03 51 1003.9
20260504225804 80 145 3.0 9.0 0.00 0.03 0.03 52 1003.9
20260504225304 80 154 1.0 6.0 0.00 0.03 0.03 52 1003.9
20260504224803 82 145 0.0 0.0 0.00 0.03 0.03 52 1004.0
20260504224303 81 167 1.0 0.0 0.00 0.03 0.03 52 1004.0
20260504223803 80 190 1.0 3.0 0.00 0.03 0.03 52 1004.0
20260504223303 81 145 1.0 3.0 0.00 0.03 0.03 51 1004.0
20260504222803 81 145 1.0 5.0 0.00 0.03 0.03 50 1003.8
20260504222304 82 163 0.0 3.0 0.00 0.03 0.03 50 1003.8
20260504221803 83 235 1.0 0.0 0.00 0.03 0.03 50 1003.8
20260504221303 82 213 1.0 0.0 0.00 0.03 0.03 50 1003.8
20260504220803 82 280 1.0 6.0 0.00 0.03 0.03 49 1003.6
20260504220302 82 242 1.0 6.0 0.00 0.03 0.03 48 1003.6
20260504215803 82 33 3.0 6.0 0.00 0.03 0.03 49 1003.6
20260504215304 83 130 2.0 9.0 0.00 0.03 0.03 49 1003.6
20260504214803 84 145 1.0 9.0 0.00 0.03 0.03 48 1003.6
20260504214304 84 145 2.0 3.0 0.00 0.03 0.03 49 1003.6
20260504213804 82 303 5.0 8.0 0.00 0.03 0.03 50 1003.6
20260504213303 82 174 3.0 12.0 0.00 0.03 0.03 50 1003.6
20260504212304 83 130 1.0 5.0 0.00 0.03 0.03 52 1004.3
20260504211803 83 190 1.0 5.0 0.00 0.03 0.03 52 1004.3
20260504211303 82 180 1.0 5.0 0.00 0.03 0.03 52 1004.3
20260504210804 82 303 2.0 2.0 0.00 0.03 0.03 55 1004.3
20260504210303 81 204 3.0 8.0 0.00 0.03 0.03 54 1004.3
20260504205803 79 167 3.0 8.0 0.00 0.03 0.03 56 1004.3
20260504205304 79 190 4.0 9.0 0.00 0.03 0.03 56 1004.3
20260504204803 78 145 3.0 12.0 0.00 0.03 0.03 57 1004.8
20260504204303 79 145 1.0 12.0 0.00 0.03 0.03 56 1004.8
20260504203803 78 33 1.0 2.0 0.00 0.03 0.03 59 1004.8
20260504203303 78 242 1.0 2.0 0.00 0.03 0.03 63 1004.8
20260504202804 76 190 1.0 2.0 0.00 0.03 0.03 65 1004.9
20260504202304 76 157 1.0 9.0 0.00 0.03 0.03 66 1004.9
20260504201803 75 123 1.0 9.0 0.00 0.03 0.03 70 1004.9
20260504201303 73 233 1.0 3.0 0.00 0.03 0.03 70 1004.9
20260504195803 70 303 1.0 3.0 0.00 0.03 0.03 75 1005.4
20260504195304 70 251 2.0 6.0 0.00 0.03 0.03 75 1005.4
20260504194302 73 240 1.0 5.0 0.00 0.03 0.03 78 1005.0
20260504193803 71 303 0.0 2.0 0.00 0.03 0.03 81 1005.0
20260504193303 68 176 0.0 0.0 0.00 0.03 0.03 84 1005.0
20260504192803 65 190 1.0 2.0 0.03 0.03 0.03 85 1006.6
20260504192304 65 149 2.0 6.0 0.03 0.03 0.03 85 1006.6
20260504191803 65 213 1.0 6.0 0.03 0.03 0.03 85 1006.6
20260504191303 64 190 0.0 3.0 0.03 0.03 0.03 85 1006.6
20260504190803 64 123 0.0 0.0 0.03 0.03 0.03 83 1006.3
20260504190303 63 197 1.0 0.0 0.03 0.03 0.03 83 1006.3
20260504185803 63 167 1.0 5.0 0.03 0.03 0.03 83 1006.3
20260504185304 63 132 1.0 5.0 0.03 0.03 0.03 83 1006.3
20260504184303 63 205 2.0 5.0 0.03 0.03 0.03 83 1006.8
20260504183803 63 303 2.0 5.0 0.03 0.03 0.03 84 1006.8
20260504183303 64 75 1.0 6.0 0.03 0.03 0.03 84 1006.8
20260504182304 65 145 0.0 0.0 0.00 0.00 0.00 72 1007.6
20260504181804 65 213 0.0 0.0 0.00 0.00 0.00 71 1007.6
20260504181303 65 213 0.0 2.0 0.00 0.00 0.00 71 1007.6
20260504180803 65 347 0.0 2.0 0.00 0.00 0.00 71 1007.0
20260504180303 65 280 0.0 0.0 0.00 0.00 0.00 71 1007.0
20260504175803 65 347 0.0 2.0 0.00 0.00 0.00 69 1007.0
20260504175304 66 336 0.0 2.0 0.00 0.00 0.00 68 1007.0
20260504174303 65 152 0.0 0.0 0.00 0.00 0.00 68 1007.3
20260504173804 65 167 0.0 0.0 0.00 0.00 0.00 67 1007.3
20260504172803 66 145 1.0 0.0 0.00 0.00 0.00 65 1006.6
20260504172304 66 145 1.0 2.0 0.00 0.00 0.00 65 1006.6
20260504171804 66 123 0.0 3.0 0.00 0.00 0.00 65 1006.6
20260504171303 67 145 0.0 0.0 0.00 0.00 0.00 64 1006.6
20260504170803 67 347 0.0 0.0 0.00 0.00 0.00 64 1007.9
20260504170303 67 142 1.0 0.0 0.00 0.00 0.00 64 1007.9
20260504160303 67 206 0.0 0.0 0.00 0.00 0.00 61 1008.2
20260504150803 69 167 2.0 6.0 0.00 0.00 0.00 57 1008.9
20260504150304 69 181 1.0 6.0 0.00 0.00 0.00 56 1008.9
20260504141303 69 228 5.0 8.0 0.00 0.00 0.00 56 1008.3
20260504140803 69 167 3.0 6.0 0.00 0.00 0.00 58 1009.1
20260504140303 68 175 2.0 6.0 0.00 0.00 0.00 58 1009.1
20260504130304 63 178 1.0 6.0 0.00 0.00 0.00 68 1009.6
20260504120304 59 217 0.0 2.0 0.00 0.00 0.00 72 1009.4
20260504110303 59 213 0.0 0.0 0.00 0.00 0.00 69 1009.9
20260504100304 61 311 0.0 0.0 0.00 0.00 0.00 66 1008.5
20260504081804 63 145 0.0 0.0 0.00 0.00 0.00 59 1008.5
20260504081304 63 145 0.0 2.0 0.00 0.00 0.00 59 1008.5
20260504050304 67 239 7.0 17.0 0.00 0.00 0.00 48 1008.4
20260504044804 68 167 7.0 10.0 0.00 0.00 0.00 47 1008.7
20260504044304 68 145 8.0 12.0 0.00 0.00 0.00 47 1008.7
20260504043804 68 145 8.0 14.0 0.00 0.00 0.00 47 1008.7
20260504043303 68 145 8.0 10.0 0.00 0.00 0.00 46 1008.7
20260504042805 68 213 7.0 10.0 0.00 0.00 0.00 46 1009.0
20260504041804 69 145 9.0 10.0 0.00 0.00 0.00 45 1009.0
20260504041304 69 134 9.0 14.0 0.00 0.00 0.00 45 1009.0
20260504040304 69 325 7.0 13.0 0.00 0.00 0.00 45 1009.3
20260504035804 68 145 5.0 8.0 0.00 0.00 0.00 45 1009.3
20260504035305 68 145 5.0 8.0 0.00 0.00 0.00 45 1009.3
20260504034804 68 167 4.0 7.0 0.00 0.00 0.00 45 1009.6
20260504033804 68 145 2.0 5.0 0.00 0.03 0.00 44 1009.6
20260504033305 68 145 1.0 3.0 0.00 0.03 0.00 44 1009.6
20260504032806 68 145 1.0 2.0 0.00 0.03 0.00 43 1009.7
20260504032304 68 179 0.0 2.0 0.00 0.03 0.00 43 1009.7
20260504031804 68 190 1.0 2.0 0.00 0.03 0.00 43 1009.7
20260504031304 68 145 1.0 3.0 0.00 0.03 0.00 42 1009.7
20260504030804 68 145 3.0 3.0 0.00 0.03 0.00 42 1009.5
20260504030304 69 145 3.0 7.0 0.00 0.03 0.00 42 1009.5
20260504025804 69 167 4.0 7.0 0.00 0.03 0.00 42 1009.5
20260504025304 69 145 5.0 5.0 0.00 0.03 0.00 41 1009.5
20260504024304 69 145 5.0 6.0 0.00 0.03 0.00 41 1009.3
20260504023805 69 145 5.0 6.0 0.00 0.03 0.00 40 1009.3
20260504022304 70 145 3.0 7.0 0.00 0.03 0.00 40 1009.0
20260504021804 70 167 2.0 6.0 0.00 0.03 0.00 39 1009.0
20260504021304 70 188 2.0 6.0 0.00 0.03 0.00 39 1009.0
20260504020804 71 145 3.0 5.0 0.00 0.03 0.00 39 1009.2
20260504020304 71 145 3.0 5.0 0.00 0.03 0.00 39 1009.2
20260504015804 71 145 1.0 5.0 0.00 0.03 0.00 39 1009.2
20260504014804 71 303 1.0 3.0 0.00 0.03 0.00 38 1008.8
20260504014304 72 157 1.0 6.0 0.00 0.03 0.00 38 1008.8
20260504013805 72 303 1.0 0.0 0.00 0.03 0.00 38 1008.8
20260504013304 72 189 2.0 3.0 0.00 0.03 0.00 38 1008.8
20260504012806 72 167 2.0 3.0 0.00 0.03 0.00 38 1008.5
20260504012304 72 168 1.0 3.0 0.00 0.03 0.00 37 1008.5
20260504011806 73 197 3.0 7.0 0.00 0.03 0.00 36 1008.7